Date/Time (UTC),ProbHail,ProbWind,ProbTor,MESH,VIL Density,Flash Rate,Max Flash Density,LJA sigma-level,Max 0-2km AzShear,LLAZ 98th%,MLAZ 98th%,MUCAPE,MLCAPE,CAPE -10C to -30C,MLCIN,SRH 0-1km AGL,EBShear,MeanWind 0-1km AGL,Norm. Sat. Growth Rate,PWAT,WBZ,AvgBeamHgt,size
2019/05/20 17:56,5,1,2,0.08,0.7,0,0.0,0.0,5,2,3,4319,3827,977,4,86,61.1,35.9,0,1.4,9.3,2.1,83
2019/05/20 17:58,6,1,2,0.16,0.7,0,0.0,0.0,3,3,3,4320,3827,977,4,85,61.1,35.8,0,1.4,9.3,2.0,95
2019/05/20 18:00,7,2,2,0.2,0.7,0,0.03,0.0,3,3,3,4328,3828,980,4,85,61.0,35.9,0,1.4,9.5,1.9,70
2019/05/20 18:02,7,5,1,0.2,1.0,1,0.04,0.0,3,3,3,4333,3827,981,4,85,61.0,35.9,0,1.4,9.5,1.9,72
2019/05/20 18:04,7,2,1,0.2,1.4,1,0.04,0.0,2,2,4,4349,3824,984,4,86,61.0,36.0,0,1.4,9.6,1.8,62
2019/05/20 18:06,6,5,1,0.19,1.4,1,0.04,0.0,3,3,4,4353,3821,985,4,87,61.0,36.0,0,1.4,9.8,1.8,69
2019/05/20 18:08,5,5,1,0.19,1.4,1,0.04,0.0,3,3,3,4363,3814,987,4,88,61.0,36.1,0,1.4,9.9,1.7,51
2019/05/20 18:10,5,5,1,0.19,1.2,1,0.05,0.0,3,3,4,4364,3812,987,4,89,61.0,36.1,0,1.4,10.0,1.7,54
2019/05/20 18:12,6,2,2,0.23,1.2,1,0.06,0.0,4,2,5,4371,3809,990,4,91,61.1,36.1,0,1.4,10.1,1.7,107
2019/05/20 18:14,9,6,2,0.33,1.3,1,0.06,0.0,4,2,6,4378,3808,991,4,92,61.2,36.1,0,1.4,10.2,1.7,117
2019/05/20 18:16,10,6,2,0.38,1.3,3,0.07,0.0,3,2,6,4384,3809,997,4,94,61.3,36.1,0,1.4,10.3,1.7,125
2019/05/20 18:18,22,24,2,0.38,1.7,4,0.09,0.0,3,3,4,4391,3808,999,4,95,61.5,36.1,0,1.4,10.3,1.7,134
2019/05/20 18:20,25,24,2,0.4,1.7,6,0.1,0.0,3,3,4,4396,3811,1010,4,98,61.6,36.1,0,1.4,10.3,1.7,218
2019/05/20 18:22,25,9,2,0.4,1.7,6,0.1,0.0,3,3,5,4403,3811,1017,4,101,61.8,36.1,0,1.4,10.3,1.7,221
2019/05/20 18:24,25,9,2,0.4,1.6,6,0.1,0.0,3,2,4,4406,3811,1019,4,101,61.8,36.1,0,1.4,10.3,1.7,235
2019/05/20 18:26,16,8,2,0.26,1.4,6,0.14,0.0,2,2,5,4410,3812,1030,4,105,61.9,36.1,0.6,1.4,10.3,1.7,257
2019/05/20 18:28,16,4,2,0.26,1.2,6,0.14,0.0,2,2,5,4417,3812,1037,4,106,62.1,36.1,0.6,1.4,10.3,1.7,234
2019/05/20 18:30,13,7,2,0.22,1.4,6,0.14,0.0,2,2,5,4424,3809,1068,4,112,62.2,36.2,0.6,1.4,10.3,1.7,222
2019/05/20 18:32,18,8,2,0.31,1.5,6,0.14,0.0,3,2,5,4427,3809,1073,4,113,62.2,36.3,0.6,1.4,10.3,1.7,225
2019/05/20 18:34,25,10,2,0.44,1.5,6,0.14,0.0,3,3,5,4422,3805,1097,4,117,62.0,36.5,0.6,1.3,10.3,1.8,226
2019/05/20 18:36,35,36,2,0.53,2.0,12,0.32,3.3,4,3,5,4428,3803,1103,4,118,62.1,36.6,0.6,1.3,10.3,1.9,201
2019/05/20 18:38,61,49,3,0.73,2.0,19,0.42,2.4,4,3,7,4432,3802,1119,3,122,62.0,36.9,0.6,1.3,10.3,1.9,233
2019/05/20 18:40,61,49,3,0.73,2.0,20,0.44,0.2,4,3,7,4439,3801,1122,3,123,62.1,37.0,0.6,1.3,10.3,1.9,218
2019/05/20 18:42,62,49,3,0.73,2.0,20,0.44,0.0,3,3,7,4451,3803,1121,4,122,62.3,36.9,0.6,1.3,10.3,1.9,203
2019/05/20 18:44,62,52,3,0.72,1.7,20,0.44,0.7,3,3,6,4458,3801,1128,4,125,62.2,37.2,0.6,1.3,10.3,1.9,201
2019/05/20 18:46,62,58,3,0.74,2.0,20,0.44,0.0,3,3,6,4465,3802,1130,3,127,62.2,37.4,0.6,1.3,10.2,2.0,201
2019/05/20 18:48,63,58,3,0.78,2.3,17,0.44,1.0,5,3,6,4483,3806,1134,3,130,62.2,37.6,0.6,1.3,10.2,2.1,305
2019/05/20 18:50,68,66,3,0.78,2.3,23,0.44,1.4,4,3,7,4498,3810,1138,3,133,62.1,37.8,0.6,1.3,10.2,2.2,224
2019/05/20 18:52,68,57,4,0.78,2.3,23,0.44,0.0,4,4,6,4498,3810,1138,3,133,62.1,37.8,0.6,1.3,10.2,2.2,224
2019/05/20 18:54,77,66,2,0.81,2.6,23,0.44,0.0,4,4,6,4693,3913,1077,4,81,62.3,34.4,0.6,1.4,9.3,2.3,244
2019/05/20 18:56,77,71,2,0.82,2.6,23,0.44,0.0,4,4,6,4691,3912,1077,3,81,62.2,34.5,0.6,1.4,9.4,2.4,231
2019/05/20 18:58,68,56,1,0.82,2.6,10,0.44,0.0,5,3,5,4688,3910,1076,3,80,62.2,34.5,0.6,1.4,9.5,2.5,276
2019/05/20 19:00,67,49,1,0.82,2.3,11,0.44,0.9,5,3,6,4687,3910,1076,3,80,62.1,34.6,0.6,1.4,9.5,2.6,318
2019/05/20 19:02,79,61,1,1.02,2.3,14,0.44,0.5,4,3,5,4688,3909,1080,3,81,62.1,34.7,0.6,1.4,9.6,2.6,226
2019/05/20 19:04,89,83,2,1.12,2.9,27,0.47,3.3,4,3,7,4685,3907,1079,3,80,62.0,34.8,0.6,1.4,9.7,2.7,237
2019/05/20 19:06,91,81,2,1.2,3.0,27,0.47,0.0,5,4,7,4685,3907,1080,3,80,62.0,34.9,0.6,1.4,9.8,2.8,259
2019/05/20 19:08,97,92,5,1.68,3.5,41,0.6,3.4,7,4,8,4682,3907,1084,3,80,61.8,35.1,0.6,1.3,9.9,2.9,247
2019/05/20 19:10,97,92,5,1.68,3.5,41,0.6,0.0,5,4,8,4671,3899,1093,3,80,61.5,35.2,0.6,1.3,9.9,3.1,219
2019/05/20 19:12,98,92,5,1.97,4.0,41,0.6,0.0,5,4,6,4663,3894,1100,3,81,61.3,35.3,0.6,1.3,10.0,3.2,230
2019/05/20 19:14,98,95,6,2.11,4.0,41,0.6,0.0,7,5,6,4663,3894,1100,3,81,61.3,35.3,0.6,1.3,10.0,3.2,230
2019/05/20 19:16,98,95,6,2.11,4.0,32,0.6,1.4,7,5,8,4656,3890,1103,4,81,61.2,35.3,0.6,1.3,10.0,3.3,257
2019/05/20 19:18,98,95,7,2.11,4.0,34,0.6,0.2,7,5,7,4646,3887,1111,4,82,61.2,35.4,0.6,1.3,10.0,3.5,286
2019/05/20 19:20,98,95,46,2.01,3.9,34,0.6,0.0,13,10,7,4634,3885,1116,4,83,61.2,35.4,0.6,1.3,10.1,3.6,279
2019/05/20 19:22,98,95,43,1.82,3.6,34,0.6,0.0,13,10,7,4625,3886,1118,4,84,61.2,35.4,0.6,1.3,10.2,3.7,319
2019/05/20 19:24,97,95,42,1.8,3.5,34,0.6,1.3,14,10,7,4613,3888,1121,4,86,61.2,35.4,0.6,1.3,10.3,3.9,346
2019/05/20 19:26,97,95,58,1.72,3.4,31,0.6,0.0,18,11,7,4618,3889,1122,4,88,61.2,35.4,0.6,1.3,10.3,3.9,344
2019/05/20 19:28,91,95,58,1.19,3.1,31,0.6,0.1,18,11,7,4605,3890,1123,4,89,61.2,35.4,0.6,1.3,10.3,4.0,343
2019/05/20 19:30,91,95,67,1.19,3.1,31,0.6,0.0,18,15,8,4600,3891,1124,4,90,61.2,35.4,0.6,1.3,10.3,4.1,256
2019/05/20 19:32,89,92,76,1.14,2.8,29,0.6,0.5,18,15,10,4524,3896,1120,3,92,61.0,35.6,0.6,1.3,10.5,4.5,325
2019/05/20 19:34,87,94,76,1.06,2.8,29,0.6,0.0,18,15,7,4524,3896,1120,3,92,61.0,35.6,0.6,1.3,10.5,4.5,325
2019/05/20 19:36,80,88,81,1.03,2.0,20,0.6,0.0,24,12,11,4532,3895,1122,3,91,60.8,35.6,0.6,1.3,10.5,4.5,225
2019/05/20 19:38,79,88,81,1.03,2.2,20,0.6,1.2,24,12,10,4484,3893,1119,3,90,60.4,35.7,0.6,1.3,10.5,4.7,231
2019/05/20 19:40,71,88,79,0.9,2.3,20,0.49,0.0,24,12,7,4460,3895,1119,3,90,60.3,35.8,0.6,1.3,10.6,4.8,221
2019/05/20 19:42,72,84,77,0.93,2.3,16,0.49,0.6,24,10,6,4425,3898,1116,2,92,60.3,36.0,0.6,1.3,10.6,5.0,216
2019/05/20 19:44,72,78,24,0.93,2.3,16,0.49,0.1,9,8,6,4411,3898,1114,2,92,60.3,36.1,0.6,1.3,10.7,5.1,213
2019/05/20 19:46,84,91,22,0.93,2.3,34,0.64,2.6,9,8,8,4385,3897,1108,2,93,60.3,36.3,0.6,1.4,10.7,5.3,213
2019/05/20 19:48,82,83,24,0.9,2.3,34,0.64,0.0,9,8,8,4385,3898,1108,2,93,60.3,36.3,0.6,1.4,10.7,5.3,205
2019/05/20 19:50,92,87,24,1.22,2.6,34,0.64,0.0,9,8,6,4361,3894,1097,2,97,61.0,36.7,Storm,1.4,10.8,5.7,318
2019/05/20 19:52,93,95,29,1.25,2.9,34,0.64,0.2,9,8,7,5210,4290,1131,1,110,61.9,37.4,Storm,1.5,10.8,5.9,313
2019/05/20 19:54,87,94,19,1.25,2.9,20,0.64,0.4,8,7,7,5221,4283,1136,0,110,61.7,37.3,Storm,1.5,10.8,5.8,141
2019/05/20 19:56,91,92,19,1.29,2.9,26,0.64,0.5,8,7,7,5222,4302,1129,1,115,62.9,37.6,Storm,1.5,10.8,6.1,268
2019/05/20 19:58,92,92,16,1.29,2.9,27,0.64,0.2,8,7,6,5229,4306,1128,1,118,63.3,37.6,Storm,1.5,10.8,6.3,295
2019/05/20 20:00,92,89,12,1.29,2.9,27,0.64,0.0,8,6,6,5236,4313,1126,1,122,63.7,37.7,Storm,1.5,10.9,6.5,339
2019/05/20 20:02,88,89,10,1.13,2.9,27,0.64,0.0,8,6,6,5239,4317,1123,1,124,63.9,37.8,Storm,1.5,10.9,6.6,367
2019/05/20 20:04,85,88,10,1.04,2.4,27,0.64,0.0,8,6,6,5253,4324,1120,2,129,64.2,38.0,Storm,1.5,10.9,6.8,310
2019/05/20 20:06,57,74,37,0.77,2.2,14,0.64,0.0,14,7,7,5265,4326,1119,2,132,64.4,38.1,Storm,1.5,10.9,7.0,333
2019/05/20 20:08,55,74,65,0.77,2.0,11,0.64,0.0,14,7,12,5302,4340,1116,2,138,64.6,38.3,Storm,1.6,10.9,7.2,338
2019/05/20 20:10,46,64,65,0.69,1.7,11,0.64,0.0,8,7,12,5294,4342,1114,3,137,64.6,38.3,Storm,1.6,11.0,7.2,135
2019/05/20 20:12,51,71,65,0.75,1.8,11,0.64,3.3,8,7,6,5275,4341,1111,2,137,64.5,38.4,Storm,1.6,11.0,7.2,116
2019/05/20 20:14,60,72,41,0.81,1.8,11,0.64,0.0,8,7,7,5249,4336,1106,2,135,64.3,38.5,Storm,1.6,10.9,7.3,95
2019/05/20 20:16,88,82,14,1.29,2.4,15,0.64,2.4,8,6,7,5292,4349,1104,3,140,64.1,38.8,Storm,1.6,10.9,7.6,170
2019/05/20 20:18,88,82,20,1.29,2.4,15,0.47,0.0,8,6,7,5325,4365,1107,3,143,64.1,38.9,Storm,1.6,10.8,7.7,191
